Theta_e
316 316 316 315 317 310 310 315 313 315 316 321 319 319 318 318 320 320 320 320 320 320 318 318 318 317 316 315 317 319 321 325 328 330 332 332 332 332 332 332 331 330 330 330
317 316 311 311 316 316 312 312 313 316 317 319 316 317 316 317 317 318 318 318 318 317 317 317 317 316 315 316 316 317 319 322 327 328 330 330 331 331 331 331 331 331 331 330
313 311 311 313 315 317 316 314 312 310 317 318 319 315 315 315 316 316 316 316 316 316 316 316 314 315 316 316 316 316 318 321 323 326 327 329 330 330 330 331 331 330 329 329
314 311 313 313 311 312 312 314 315 314 313 310 313 307 309 310 312 315 316 316 316 316 315 315 315 316 315 314 315 315 315 316 319 323 327 328 328 329 330 330 330 329 328 328
314 314 313 315 313 312 311 314 316 315 315 314 312 314 308 313 311 313 315 317 317 317 316 316 313 312 311 312 316 318 317 316 318 323 326 328 329 329 330 330 329 328 328 328
313 312 313 312 313 314 314 317 318 318 317 318 311 312 310 309 310 312 316 316 316 315 314 312 308 309 311 313 320 324 324 325 325 325 327 328 329 329 330 329 329 329 328 327
314 314 312 311 313 315 315 316 317 319 319 317 309 312 310 310 311 311 312 314 314 314 312 309 309 308 307 307 310 311 315 313 321 326 328 329 329 330 329 329 329 329 329 328
316 316 314 312 312 314 316 314 312 312 314 312 313 313 311 312 311 311 312 313 313 312 309 307 305 304 303 302 304 305 305 306 305 309 313 319 323 323 323 324 326 325 325 325
315 313 312 313 311 313 315 315 310 308 310 315 310 312 311 312 313 312 315 312 313 309 306 304 302 300 299 298 298 299 299 299 300 300 300 301 302 303 302 304 305 304 303 304
312 313 310 312 313 312 314 313 315 314 312 312 309 310 311 314 314 313 314 315 312 306 304 302 300 298 296 296 295 294 295 295 296 296 297 297 297 297 298 298 298 298 298 298
311 312 311 312 315 315 313 316 314 313 313 311 309 308 308 309 312 314 314 314 310 305 303 300 297 296 295 294 293 292 292 292 292 293 294 294 295 294 294 294 294 294 295 295
312 311 314 313 312 313 314 315 315 315 315 313 311 310 310 311 311 312 313 312 306 303 300 298 295 294 294 293 291 290 289 289 289 290 291 291 292 292 291 290 290 290 291 292
312 311 315 313 311 310 315 315 315 314 313 317 317 313 310 310 311 310 310 306 303 300 297 296 294 293 292 291 290 288 287 287 287 288 289 289 289 287 287 287 287 287 288 288
312 312 313 313 312 311 313 314 315 315 317 315 315 313 312 310 311 308 306 303 301 299 297 295 293 291 289 288 287 286 285 285 285 286 286 285 284 284 284 284 284 285 285 286
311 313 312 312 311 309 312 313 314 316 315 315 315 313 313 312 311 308 305 302 300 298 297 294 292 289 287 286 284 283 283 283 283 283 282 281 281 281 281 281 282 282 282 283
311 315 313 312 311 310 311 312 313 313 315 315 314 313 312 311 309 307 303 301 300 298 295 290 288 285 284 283 282 281 281 281 281 281 280 279 279 280 280 279 280 280 280 281
311 312 313 314 312 311 311 310 312 312 312 313 315 313 312 309 307 306 303 301 299 295 291 288 286 284 282 280 279 280 279 279 279 279 279 278 278 278 278 278 279 279 279 280
310 311 312 314 312 314 311 310 309 311 311 311 311 311 311 311 305 303 303 300 296 291 288 285 282 281 279 278 278 279 278 278 278 278 278 277 277 277 277 278 278 278 278 279
309 311 313 314 313 311 309 306 309 310 310 309 311 311 310 296 294 290 290 294 290 287 284 281 280 278 278 277 277 278 277 277 277 277 276 276 276 276 276 277 277 277 277 278
308 309 311 311 312 313 310 305 304 308 311 308 308 310 304 296 306 308 287 285 283 281 280 279 278 277 277 276 277 277 276 276 276 275 275 274 274 274 275 275 275 275 276 276
309 310 312 313 312 311 309 297 303 310 310 306 306 308 298 302 300 291 284 282 281 279 277 277 277 276 275 275 276 276 275 275 273 273 272 272 272 272 273 273 273 274 274 274
310 311 313 312 313 312 296 296 308 302 289 291 294 297 296 286 283 283 281 280 279 278 276 276 276 275 274 274 274 274 273 272 271 270 270 270 270 271 271 271 272 272 273 273
310 310 311 311 309 288 286 288 285 285 287 285 287 285 284 282 281 280 279 278 277 276 275 275 275 274 272 272 272 272 270 269 269 268 268 269 269 269 269 270 271 271 272 272
300 296 304 302 291 287 283 281 281 283 283 282 283 283 282 281 280 279 278 277 276 274 274 273 273 272 271 269 269 268 268 267 267 267 267 267 268 268 268 269 269 270 270 271
298 297 296 296 284 282 282 282 281 280 280 280 280 280 280 279 278 278 277 275 274 273 272 271 271 270 269 268 267 266 265 265 266 265 266 266 266 267 267 267 268 268 269 269
293 297 302 305 289 291 288 282 280 279 279 279 278 278 278 278 277 276 275 273 272 271 270 269 268 268 267 266 265 264 264 263 263 264 264 264 265 265 265 266 266 266 266 267
Wind_Speed
13 8 17 20 20 8 9 13 11 6 4 8 18 23 21 17 17 16 15 15 15 17 20 25 23 20 18 19 20 20 21 20 17 18 18 20 24 24 23 24 23 23 22 20
9 21 14 11 16 18 8 11 11 3 4 6 13 23 22 20 21 23 22 21 21 20 21 24 20 18 18 19 18 18 19 18 19 19 18 18 14 19 21 22 23 24 23 23
19 4 19 14 16 18 19 18 10 5 2 9 11 22 24 18 24 23 21 21 20 22 22 20 19 17 13 15 14 15 16 18 20 21 18 17 15 15 15 19 20 21 22 22
16 18 14 17 22 19 19 14 15 11 5 8 2 12 15 5 8 10 16 17 19 18 17 14 14 14 10 12 12 16 17 18 19 19 20 22 20 19 16 16 15 15 17 18
11 13 17 20 17 19 10 9 14 16 14 11 17 8 9 3 9 10 12 13 12 10 8 7 4 3 4 6 9 11 12 13 14 16 21 19 19 16 13 11 12 13 13 16
17 5 18 14 11 19 9 10 8 7 8 9 19 15 19 17 12 13 12 11 9 6 4 4 4 4 5 6 5 3 1 1 5 10 13 16 14 13 11 11 11 11 11 11
15 11 5 11 13 14 16 15 6 6 7 11 4 11 21 4 6 9 12 11 7 6 8 5 7 8 10 12 11 11 10 13 9 6 4 7 9 9 9 9 9 8 8 8
14 11 18 13 14 11 23 20 8 10 10 10 9 13 9 3 18 16 12 12 7 8 8 8 10 12 13 13 15 15 16 16 16 15 14 13 10 9 7 6 3 2 0 2
16 18 8 14 12 18 18 20 17 9 2 3 10 13 13 11 10 10 12 10 9 10 11 11 13 13 15 16 17 17 17 18 18 18 18 19 18 16 15 12 11 9 7 5
9 10 10 17 14 19 13 17 11 11 8 12 13 16 14 6 13 17 13 11 11 13 13 12 12 14 14 15 16 17 17 18 17 17 17 16 16 15 14 13 13 12 10 10
13 12 4 14 20 21 9 14 11 9 11 8 9 12 17 19 15 12 14 14 15 16 14 12 13 12 13 14 14 15 15 15 16 16 15 15 15 14 13 13 12 12 11 12
27 11 12 18 11 18 24 22 25 9 15 16 14 15 6 2 8 12 7 12 15 15 14 12 14 12 11 11 12 12 13 14 13 12 13 14 13 14 14 14 14 14 14 14
18 9 6 5 5 7 19 20 20 18 4 14 12 13 11 8 2 5 12 15 15 15 14 12 11 10 10 9 9 10 10 11 11 11 11 12 13 14 15 15 15 15 16 16
18 18 21 19 20 13 17 27 22 24 14 16 17 21 20 9 14 11 14 15 16 15 14 11 9 8 8 8 8 9 9 10 10 10 12 13 14 14 14 14 16 16 15 16
15 15 25 26 23 11 19 23 29 24 25 19 23 23 24 22 11 16 18 17 17 16 15 12 9 8 6 6 7 8 9 10 9 11 12 13 13 14 14 15 17 16 16 14
22 6 14 22 25 21 13 20 23 28 30 27 23 21 26 24 10 16 19 20 20 18 15 12 9 9 7 6 8 9 8 8 8 13 15 14 14 16 18 18 16 16 16 17
18 12 10 21 26 22 15 18 22 25 29 29 26 28 28 14 15 18 20 21 19 18 15 12 9 9 8 6 6 5 6 8 12 14 14 15 15 15 14 16 16 17 19 20
8 6 8 9 10 18 12 22 24 22 22 28 21 20 28 23 10 7 15 19 19 17 14 11 10 10 8 6 6 6 7 9 9 9 8 9 12 13 14 16 18 19 18 18
15 10 6 4 12 12 7 13 28 22 31 26 24 30 14 8 9 4 7 13 15 14 14 13 11 10 9 7 6 6 8 8 9 9 10 11 13 14 15 16 18 18 20 19
17 17 11 3 8 11 20 7 12 18 16 26 27 28 16 16 10 11 16 16 15 17 15 14 13 11 9 7 6 7 7 7 8 9 10 11 12 13 15 16 18 19 19 20
8 14 18 18 8 4 11 6 9 11 11 7 18 23 19 15 4 15 19 16 19 18 16 14 13 11 8 7 6 6 5 7 6 8 10 11 12 14 14 17 18 19 22 22
13 9 11 17 13 13 9 6 18 5 3 4 5 7 15 13 16 18 18 17 18 18 17 14 14 11 7 7 6 5 6 6 7 10 12 13 13 14 14 17 18 19 20 22
4 8 5 7 6 4 2 2 3 1 4 3 6 9 16 19 18 18 17 16 17 18 17 14 13 12 8 6 5 4 6 8 9 13 14 14 15 15 17 18 20 21 21 22
2 2 3 2 4 3 5 3 1 1 6 8 11 15 16 20 20 19 16 15 16 17 15 14 13 11 7 5 5 6 6 8 10 12 14 15 15 17 16 16 16 18 20 22
2 7 7 3 3 3 10 10 7 8 10 12 12 13 15 18 17 16 14 12 14 15 14 12 10 8 6 4 5 6 8 9 11 13 14 14 14 16 18 16 18 19 19 21
5 5 6 4 6 1 1 15 14 13 13 13 17 14 12 15 16 15 12 15 17 14 12 10 8 6 4 4 5 6 9 10 11 12 14 15 17 18 18 20 22 18 21 24
Wind_Direction
185 200 207 203 209 222 223 215 219 210 200 224 240 257 257 249 246 249 247 248 254 256 258 260 265 266 265 264 254 250 248 239 229 225 224 229 227 229 231 232 234 234 235 234
186 226 207 214 215 217 210 218 226 234 223 226 259 262 264 258 251 247 248 250 255 263 264 260 259 258 267 265 257 251 247 238 228 225 225 228 230 237 238 237 236 234 232 233
209 174 197 184 199 211 225 229 214 236 154 235 283 272 256 250 249 246 250 254 255 252 258 266 265 263 264 265 264 257 248 241 235 233 229 227 230 236 230 232 235 235 233 235
229 222 195 206 219 204 226 223 229 219 233 254 187 282 263 192 223 227 235 241 241 245 251 266 267 268 269 272 267 260 254 249 245 235 226 219 219 228 233 232 233 230 232 236
211 187 194 207 211 200 238 181 202 212 231 267 241 267 257 192 241 221 224 224 227 238 241 256 260 295 314 305 289 270 257 253 240 229 223 224 231 240 240 235 227 223 234 241
216 214 201 210 196 190 144 135 149 197 223 244 234 226 261 242 234 219 205 222 216 216 222 147 100 61 36 21 28 30 61 307 232 217 219 223 230 236 236 236 235 235 234 239
215 192 189 198 180 187 183 167 172 205 210 240 208 217 248 291 325 241 226 228 216 180 157 136 99 72 54 47 51 60 71 63 77 128 176 220 233 237 242 254 248 254 242 245
203 205 202 185 194 180 200 191 191 213 223 250 164 233 241 218 220 233 222 239 179 168 140 120 98 87 80 67 64 65 66 68 69 84 83 92 110 109 108 93 144 96 43 304
206 225 186 188 190 167 201 212 220 269 84 259 223 250 283 237 243 234 230 226 226 153 133 122 109 99 88 79 72 71 70 68 65 66 68 75 81 83 75 77 80 72 54 25
204 222 190 193 198 214 195 195 196 218 224 231 247 251 252 199 225 229 226 214 167 146 141 127 114 102 91 83 77 73 69 64 60 61 61 61 58 56 56 54 47 38 28 19
218 226 143 162 203 188 182 194 217 223 229 229 253 244 242 242 233 218 226 215 169 156 144 132 118 106 97 86 76 70 63 60 55 52 51 51 46 43 40 37 27 18 8 3
211 233 223 203 213 219 204 203 194 192 206 226 244 252 132 168 244 250 232 165 158 151 147 139 127 116 100 89 76 66 60 55 48 47 47 44 40 31 21 12 7 360 353 350
183 208 193 184 237 228 223 216 215 227 267 215 216 249 263 205 150 186 163 160 156 151 145 139 132 120 106 90 76 63 55 51 46 40 42 38 36 19 10 0 353 353 349 348
187 219 217 220 214 181 202 214 211 211 216 225 222 244 247 228 224 167 164 166 159 158 155 147 136 122 106 91 74 52 42 36 41 48 41 24 14 18 1 355 350 347 348 348
202 221 218 231 245 233 206 212 211 213 220 221 231 227 251 249 204 189 173 162 167 168 166 159 145 124 103 87 68 51 37 26 26 42 42 23 4 13 357 357 355 346 345 354
210 217 207 225 234 233 226 216 213 215 220 226 238 243 244 256 210 179 182 175 179 177 166 152 140 126 102 71 56 49 36 27 30 40 34 16 9 6 5 355 348 345 349 354
198 213 201 232 225 224 227 219 212 218 220 224 224 232 243 231 206 192 191 190 181 173 165 157 144 130 114 85 73 73 55 46 43 38 27 15 6 1 351 347 344 343 352 351
186 185 209 213 174 228 225 225 223 225 225 227 227 233 242 233 196 182 193 187 174 165 158 149 141 131 112 93 84 82 68 57 55 48 32 15 5 353 346 348 348 346 344 340
202 207 227 243 231 261 267 216 209 202 232 227 222 233 225 109 131 197 167 166 158 152 144 140 134 125 112 97 94 92 70 59 50 32 16 7 359 349 344 343 340 337 333 332
211 200 219 211 231 234 236 202 197 199 239 228 219 229 186 150 193 212 160 146 138 139 138 137 131 123 113 99 102 99 77 61 39 16 1 353 348 343 337 333 333 329 326 321
187 200 215 213 230 254 248 139 158 165 230 211 210 219 173 192 227 129 142 137 137 135 132 134 132 121 109 97 107 99 83 51 16 359 349 344 341 335 330 326 325 324 322 320
189 187 226 218 217 234 151 116 181 198 35 144 124 157 169 121 122 133 135 136 136 133 134 138 134 125 108 98 96 90 62 16 358 347 340 336 334 332 329 324 323 323 323 322
198 195 182 217 203 354 296 99 21 318 131 172 137 128 139 136 140 142 139 140 141 141 138 140 139 129 107 85 76 68 23 1 348 339 338 335 333 333 330 329 327 328 328 325
163 242 180 152 186 206 254 285 7 170 143 138 128 140 147 144 148 145 143 142 140 141 138 137 135 130 116 79 57 40 9 354 343 340 337 335 333 329 327 325 324 323 324 323
141 154 163 252 232 297 244 222 178 130 122 121 123 134 140 139 143 141 138 138 138 135 133 133 130 123 105 69 49 25 4 357 349 339 332 329 326 325 325 326 323 320 317 316
200 166 193 238 156 37 242 175 162 151 145 137 129 129 131 138 137 133 131 135 134 134 134 129 124 115 92 58 39 9 360 358 343 330 331 331 329 328 325 322 318 314 311 312